Location: Colle Santa Colomba
(42.0333°N, 12.5667°E)
Time: 03:16:35
(UTC+00:00)

Lacrosse 4 Rocket - Pass Details

Date: 25 October 2021
Orbit: 538 x 619 km, 68.0° (Epoch: 28 November)

Event Time Altitude Azimuth Distance (km) Brightness Sun altitude
Rises 17:32:53 0° 330° (NNW) 2,820 5.3 -15.5°
Reaches altitude 10° 17:35:06 10° 330° (NNW) 1,929 4.4 -15.9°
Maximum altitude 17:39:27 83° 244° (WSW) 612 1.5 -16.7°
Drops below altitude 10° 17:43:52 10° 156° (SSE) 1,957 3.9 -17.5°
Enters shadow 17:44:37 - 156° (SSE) 2,254 4.2 -17.6°
